Fruitland, IA

8:12 AM CST on February 25, 2017 (GMT -0600)
Muscatine Municipal

Weather History for KMUT - May, 2013

Change the Weather History Date:

Sunday, May 26, 2013

  Actual Average Record
Temperature  
Mean Temperature 56 °F -  
Max Temperature 60 °F 74 °F 94 °F (1985)
Min Temperature 51 °F 52 °F -99 °F (2000)
Degree Days  
Heating Degree Days 10    
Growing Degree Days 6 (Base 50)    
Moisture  
Dew Point 50 °F    
Average Humidity 83    
Maximum Humidity 88    
Minimum Humidity 76    
Precipitation  
Precipitation 1.21 in - - ()
Sea Level Pressure  
Sea Level Pressure 30.13 in    
Wind  
Wind Speed 8 mph (East)    
Max Wind Speed 16 mph    
Max Gust Speed 32 mph    
Visibility 8 miles    
Events Rain    
Averages and records for this station are not official NWS values.
T = Trace of Precipitation, MM = Missing Value Source: NWS Daily Summary

Daily Weather History Graph

Daily Weather History Graph

Search for Another Location

Airport or City:

Trip Planner

Search our weather history database for the weather conditions in past years. The results will help you decide how hot, cold, wet, or windy it might be!

Date:

Astronomy

May. 26, 2013 Rise Set
Actual Time 5:36 AM CDT 8:27 PM CDT
Civil Twilight 5:04 AM CDT 8:59 PM CDT
Nautical Twilight 4:22 AM CDT 9:41 PM CDT
Astronomical Twilight 3:35 AM CDT 10:28 PM CDT
Moon 10:14 PM CDT (5/26) 7:06 AM CDT (5/26)
Length of Visible Light 15h 55m
Length of Day
14h 50m
Waning Gibbous, 96% of the Moon is Illuminated
May 26
Waning Gibbous
May 31
Last Quarter
Jun 8
New
Jun 16
First Quarter
Jun 23
Full

Hourly Weather History & Observations

Time (CDT) Temp. Dew Point Humidity Pressure Visibility Wind Dir Wind Speed Gust Speed Precip Events Conditions
12:15 AM 51.8 °F 44.6 °F 76% 30.23 in 10.0 mi ESE 6.9 mph - N/A   Overcast
12:35 AM 51.8 °F 44.6 °F 76% 30.23 in 10.0 mi East 6.9 mph - N/A   Overcast
12:55 AM 51.8 °F 44.6 °F 76% 30.21 in 10.0 mi East 5.8 mph - N/A   Overcast
1:15 AM 51.8 °F 44.6 °F 76% 30.21 in 10.0 mi ESE 6.9 mph - N/A   Overcast
1:35 AM 51.8 °F 44.6 °F 76% 30.21 in 10.0 mi East 4.6 mph - N/A   Overcast
1:55 AM 51.8 °F 44.6 °F 76% 30.21 in 10.0 mi East 4.6 mph - N/A   Overcast
2:15 AM 51.8 °F 44.6 °F 76% 30.20 in 10.0 mi East 5.8 mph - N/A   Overcast
2:35 AM 51.8 °F 44.6 °F 76% 30.20 in 10.0 mi ESE 6.9 mph - N/A   Overcast
2:55 AM 51.8 °F 44.6 °F 76% 30.20 in 10.0 mi ESE 4.6 mph - N/A   Overcast
3:15 AM 51.8 °F 44.6 °F 76% 30.20 in 10.0 mi ESE 6.9 mph - N/A   Overcast
3:35 AM 51.8 °F 44.6 °F 76% 30.20 in 10.0 mi East 5.8 mph - N/A Rain Light Rain
3:55 AM 51.8 °F 46.4 °F 82% 30.20 in 7.0 mi ESE 3.5 mph - 0.01 in Rain Light Rain
4:15 AM 51.8 °F 46.4 °F 82% 30.18 in 10.0 mi ESE 8.1 mph - N/A Rain Light Rain
4:35 AM 51.8 °F 46.4 °F 82% 30.19 in 10.0 mi East 4.6 mph - 0.02 in Rain Rain
4:55 AM 51.8 °F 46.4 °F 82% 30.16 in 10.0 mi East 8.1 mph - 0.03 in Rain Light Rain
5:15 AM 51.8 °F 46.4 °F 82% 30.18 in 10.0 mi SE 8.1 mph - N/A Rain Light Rain
5:35 AM 51.8 °F 46.4 °F 82% 30.19 in 10.0 mi East 9.2 mph - 0.02 in Rain Light Rain
5:55 AM 51.8 °F 46.4 °F 82% 30.19 in 10.0 mi East 8.1 mph - 0.03 in Rain Light Rain
6:15 AM 51.8 °F 46.4 °F 82% 30.19 in 10.0 mi East 3.5 mph - 0.04 in Rain Rain
6:35 AM 51.8 °F 46.4 °F 82% 30.18 in 10.0 mi ESE 9.2 mph 17.3 mph 0.13 in Rain Rain
6:55 AM 51.8 °F 46.4 °F 82% 30.19 in 10.0 mi ESE 6.9 mph - 0.18 in Rain Light Rain
7:15 AM 51.8 °F 46.4 °F 82% 30.19 in 10.0 mi ESE 5.8 mph - 0.07 in Rain Rain
7:35 AM 51.8 °F 46.4 °F 82% 30.20 in 10.0 mi ESE 5.8 mph - 0.14 in Rain Rain
7:55 AM 51.8 °F 46.4 °F 82% 30.19 in 10.0 mi ESE 9.2 mph - 0.20 in Rain Light Rain
8:15 AM 51.8 °F 46.4 °F 82% 30.19 in 7.0 mi East 6.9 mph - 0.01 in Rain Light Rain
8:35 AM 51.8 °F 46.4 °F 82% 30.19 in 7.0 mi East 10.4 mph 16.1 mph 0.02 in Rain Light Rain
8:55 AM 51.8 °F 46.4 °F 82% 30.22 in 7.0 mi SE 4.6 mph - 0.05 in Rain Light Rain
9:15 AM 51.8 °F 46.4 °F 82% 30.20 in 7.0 mi ESE 11.5 mph - 0.05 in Rain Rain
9:35 AM 51.8 °F 46.4 °F 82% 30.19 in 10.0 mi ESE 10.4 mph - 0.16 in Rain Rain
9:55 AM 51.8 °F 46.4 °F 82% 30.19 in 10.0 mi ESE 6.9 mph - 0.21 in Rain Light Rain
10:15 AM 51.8 °F 46.4 °F 82% 30.18 in 7.0 mi East 9.2 mph - N/A   Overcast
10:35 AM 51.8 °F 48.2 °F 88% 30.17 in 7.0 mi SE 6.9 mph - N/A   Overcast
10:55 AM 53.6 °F 48.2 °F 82% 30.16 in 7.0 mi ESE 10.4 mph - N/A   Overcast
11:15 AM 53.6 °F 48.2 °F 82% 30.18 in 7.0 mi SE 5.8 mph - N/A   Overcast
11:35 AM 53.6 °F 50.0 °F 88% 30.19 in 7.0 mi SSE 4.6 mph - N/A   Overcast
11:55 AM 53.6 °F 50.0 °F 88% 30.18 in 7.0 mi ENE 10.4 mph - N/A   Overcast
12:15 PM 55.4 °F 51.8 °F 88% 30.17 in 7.0 mi East 11.5 mph - N/A   Overcast
12:35 PM 55.4 °F 51.8 °F 88% 30.16 in 7.0 mi East 13.8 mph - N/A   Overcast
12:55 PM 55.4 °F 51.8 °F 88% 30.16 in 7.0 mi East 10.4 mph - N/A   Overcast
1:15 PM 55.4 °F 51.8 °F 88% 30.16 in 7.0 mi East 12.7 mph - N/A   Overcast
1:35 PM 57.2 °F 51.8 °F 82% 30.14 in 7.0 mi East 15.0 mph - N/A   Overcast
1:55 PM 57.2 °F 51.8 °F 82% 30.13 in 7.0 mi ESE 12.7 mph - N/A   Overcast
2:15 PM 57.2 °F 53.6 °F 88% 30.12 in 7.0 mi East 9.2 mph - N/A   Overcast
2:35 PM 57.2 °F 53.6 °F 88% 30.13 in 10.0 mi NE 6.9 mph - N/A   Overcast
2:55 PM 57.2 °F 51.8 °F 82% 30.13 in 7.0 mi NE 11.5 mph - N/A   Overcast
3:15 PM 57.2 °F 51.8 °F 82% 30.13 in 7.0 mi NE 11.5 mph - N/A   Overcast
3:35 PM 57.2 °F 51.8 °F 82% 30.11 in 5.0 mi ENE 13.8 mph - N/A   Haze
3:55 PM 55.4 °F 51.8 °F 88% 30.10 in 5.0 mi ENE 13.8 mph 19.6 mph N/A   Haze
4:15 PM 57.2 °F 51.8 °F 82% 30.09 in 4.0 mi ENE 16.1 mph 25.3 mph 0.02 in Rain Heavy Rain
4:35 PM 57.2 °F 51.8 °F 82% 30.09 in 5.0 mi East 9.2 mph - 0.04 in Rain Light Rain
4:55 PM 57.2 °F 53.6 °F 88% 30.08 in 4.0 mi East 12.7 mph 17.3 mph 0.04 in Rain Light Rain
5:15 PM 59.0 °F 53.6 °F 82% 30.07 in 5.0 mi ESE 12.7 mph 18.4 mph N/A Rain Light Rain
5:35 PM 59.0 °F 53.6 °F 82% 30.07 in 4.0 mi ESE 11.5 mph 16.1 mph N/A   Haze
5:55 PM 59.0 °F 53.6 °F 82% 30.06 in 5.0 mi ESE 6.9 mph - N/A   Haze
6:15 PM 59.0 °F 53.6 °F 82% 30.05 in 5.0 mi East 11.5 mph - N/A   Haze
6:35 PM 59.0 °F 53.6 °F 82% 30.04 in 7.0 mi East 13.8 mph - N/A   Overcast
6:55 PM 59.0 °F 53.6 °F 82% 30.04 in 7.0 mi East 11.5 mph - N/A   Overcast
7:15 PM 59.0 °F 53.6 °F 82% 30.03 in 10.0 mi East 11.5 mph 17.3 mph N/A   Overcast
7:35 PM 59.0 °F 53.6 °F 82% 30.06 in 4.0 mi ENE 13.8 mph 32.2 mph 0.10 in   Haze
7:55 PM 59.0 °F 53.6 °F 82% 30.03 in 10.0 mi East 12.7 mph - 0.34 in Rain Rain
8:15 PM 59.0 °F 53.6 °F 82% 30.05 in 10.0 mi ESE 8.1 mph - 0.03 in Rain Light Rain
8:35 PM 59.0 °F 53.6 °F 82% 30.03 in 10.0 mi East 10.4 mph - 0.06 in Rain Rain
8:55 PM 59.0 °F 53.6 °F 82% 30.03 in 10.0 mi East 11.5 mph - 0.10 in Rain Rain
9:15 PM 59.0 °F 55.4 °F 88% 30.01 in 10.0 mi ESE 11.5 mph - 0.02 in Rain Light Rain
9:35 PM 59.0 °F 55.4 °F 88% 30.02 in 10.0 mi East 4.6 mph - 0.02 in   Light Drizzle
9:55 PM 59.0 °F 55.4 °F 88% 30.03 in 10.0 mi East 4.6 mph - 0.02 in   Scattered Clouds
10:15 PM 59.0 °F 55.4 °F 88% 30.02 in 10.0 mi East 6.9 mph - N/A   Mostly Cloudy
10:35 PM 60.8 °F 55.4 °F 82% 30.03 in 10.0 mi East 6.9 mph - N/A   Overcast
10:55 PM 59.0 °F 55.4 °F 88% 30.02 in 10.0 mi East 8.1 mph - N/A   Overcast
11:15 PM 59.0 °F 55.4 °F 88% 30.00 in 10.0 mi East 10.4 mph - N/A   Mostly Cloudy
11:35 PM 59.0 °F 55.4 °F 88% 29.99 in 10.0 mi East 9.2 mph - N/A   Mostly Cloudy
11:55 PM 59.0 °F 55.4 °F 88% 30.00 in 10.0 mi East 8.1 mph - N/A   Mostly Cloudy